Regional Weather Roundup
Issued by NWS

Home | Current Version | Previous Version | Graphics & Text | Print | Product List | Glossary On
Versions: 1 2 3 4 5 6 7 8 9 10 11 12 13 14 15 16 17 18 19 20 21 22 23 24 25 26 27 28 29 30 31 32 33 34 35 36 37 38 39 40 41 42 43 44 45 46 47 48 49 50
461
ASUS43 KFSD 171302
RWRSD

WEATHER ROUNDUP FOR SOUTH DAKOTA
NATIONAL WEATHER SERVICE SIOUX FALLS SD
700 AM CST FRI NOV 17 2017

NOTE: "FAIR" INDICATES FEW OR NO CLOUDS BELOW 12,000 FEET WITH NO
SIGNIFICANT WEATHER AND/OR OBSTRUCTIONS TO VISIBILITY.


SDZ001>005-009-010-012>017-171400-
NORTHWEST AND NORTH CENTRAL SOUTH DAKOTA

CITY           SKY/WX    TMP DP  RH WIND       PRES   REMARKS
BUFFALO          N/A     37  31  78 W7        29.59R
FAITH            N/A     36  36 100 SW5       29.64S
MOBRIDGE       MOCLDY    37  32  82 N3        29.59F
$$

SDZ012>016-024>037-041>051-057-063-072>074-171400-
SOUTHWEST AND SOUTH CENTRAL SOUTH DAKOTA

CITY           SKY/WX    TMP DP  RH WIND       PRES   REMARKS
RAPID CTY ARPT LGT RAIN  35  34  96 NW8       29.68R WCI  29
PIERRE         MOCLDY    37  30  75 NW10      29.65R
CUSTER         LGT SNOW  33  31  92 W7        29.66R VSB 1   WCI  27
ELLSWORTH AFB  CLOUDY    36  36 100 W5        29.67
PHILIP         CLOUDY    37  29  72 NW8       29.67S
PINE RIDGE     MOCLDY    36  28  73 CALM      29.66R
SPEARFISH      CLOUDY    36  34  93 CALM      29.64F
WINNER         FAIR      37  29  72 NW6       29.64S
$$

SDZ004>011-016>023-039-040-171400-
NORTHEAST SOUTH DAKOTA

CITY           SKY/WX    TMP DP  RH WIND       PRES   REMARKS
ABERDEEN       CLOUDY    32  28  85 N7        29.63R WCI  26
WATERTOWN      CLOUDY    30  28  92 E5        29.59R WCI  25
BROOKINGS      CLOUDY    35  30  82 SE6       29.58S
SISSETON         N/A     31  28  89 S6        29.59S WCI  25
$$

SDZ017-020-022-023-036>040-048>070-171400-
SOUTHEAST SOUTH DAKOTA

CITY           SKY/WX    TMP DP  RH WIND       PRES   REMARKS
SIOUX FALLS    CLOUDY    43  37  79 S12       29.58S
HURON          CLOUDY    33  29  85 E3        29.57S
CHAMBERLAIN    CLOUDY    42  33  69 NW7       29.63R
MITCHELL       CLOUDY    38  33  82 NW13      29.56S
YANKTON        CLOUDY    44  41  89 S6        29.58S
$$

ABBREVIATIONS USED IN REMARKS
   TC - TEMPERATURE IN CELSIUS
  WCI - WIND CHILL INDEX
   HX - HEAT INDEX
  VSB - VISIBILITY





USA.gov is the U.S. government's official web portal to all federal, state and local government web resources and services.